EW4195 Weather Reports


time (UTC)temp
C
wind
direction
speed
KPH
gust
KPH
rain 1hr
cm
rain 24hr
cm
rain mn
cm
humidity
%
barometer
mb
20260505121041 13 76 9.7 19.3 0.00 0.00 0.00 1 1011.3
20260505120041 13 71 11.3 22.5 0.00 0.00 0.00 1 1011.4
20260505115105 14 79 9.7 22.5 0.00 0.00 0.00 1 1011.5
20260505114115 13 34 8.0 20.9 0.00 0.00 0.00 1 1011.5
20260505113123 13 74 9.7 20.9 0.00 0.00 0.00 1 1011.6
20260505112101 13 68 9.7 19.3 0.00 0.00 0.00 1 1011.5
20260505111105 13 30 9.7 22.5 0.00 0.00 0.00 1 1011.6
20260505110116 13 50 9.7 22.5 0.00 0.00 0.00 1 1011.6
20260505101930 12 28 9.7 17.7 0.00 0.00 0.00 1 1011.9
20260505100937 13 51 9.7 17.7 0.00 0.00 0.00 1 1011.9
20260505100544 13 27 9.7 19.3 0.00 0.00 0.00 1 1012.0
20260505095542 13 15 9.7 19.3 0.00 0.00 0.00 1 1012.0
20260505094549 13 33 8.0 19.3 0.00 0.00 0.00 1 1012.0
20260505092443 13 55 8.0 19.3 0.00 0.00 0.00 1 1012.1
20260505091455 13 40 9.7 19.3 0.00 0.00 0.00 1 1012.0
20260505090511 12 38 9.7 17.7 0.00 0.00 0.00 1 1012.0
20260505085535 12 56 8.0 19.3 0.00 0.00 0.00 1 1012.0
20260505084525 12 48 8.0 19.3 0.00 0.00 0.00 1 1012.1
20260505083456 12 35 9.7 16.1 0.00 0.00 0.00 1 1012.1
20260505082444 12 23 8.0 17.7 0.00 0.00 0.00 1 1011.9
20260505081416 12 11 9.7 20.9 0.00 0.00 0.00 1 1011.9
20260505080438 12 71 11.3 20.9 0.00 0.00 0.00 1 1011.9
20260505075402 12 44 8.0 19.3 0.00 0.00 0.00 1 1011.9
20260505074346 12 34 6.4 17.7 0.00 0.00 0.00 1 1011.9
20260505073402 11 53 8.0 17.7 0.00 0.00 0.00 1 1012.0
20260505072343 11 44 8.0 17.7 0.00 0.00 0.00 1 1012.0
20260505071358 11 63 6.4 16.1 0.00 0.00 0.00 1 1012.1
20260505070355 11 53 9.7 17.7 0.00 0.00 0.00 1 1012.0
20260505064303 11 38 9.7 19.3 0.00 0.00 0.00 1 1011.9
20260505063322 11 49 9.7 19.3 0.00 0.00 0.00 1 1011.8
20260505062309 11 66 8.0 16.1 0.00 0.00 0.00 1 1011.9
20260505061303 11 53 6.4 16.1 0.00 0.00 0.00 1 1012.1
20260505060314 11 26 4.8 14.5 0.00 0.00 0.00 1 1012.2
20260505055242 10 54 6.4 12.9 0.00 0.00 0.00 1 1012.2
20260505054258 10 32 3.2 12.9 0.00 0.00 0.00 1 1012.2
20260505053307 10 49 3.2 11.3 0.00 0.00 0.00 1 1012.2
20260505052327 10 52 3.2 9.7 0.00 0.00 0.00 1 1012.2
20260505051259 10 60 3.2 11.3 0.00 0.00 0.00 1 1012.2
20260505050247 10 49 4.8 12.9 0.00 0.00 0.00 1 1012.2
20260505041000 10 71 4.8 16.1 0.00 0.00 0.00 1 1012.1
20260505040015 10 47 4.8 16.1 0.00 0.00 0.00 1 1012.2
20260505035014 10 71 4.8 12.9 0.00 0.00 0.00 1 1012.2
20260505032841 10 17 3.2 8.0 0.00 0.00 0.00 1 1012.2
20260505030716 11 44 6.4 16.1 0.00 0.00 0.00 1 1012.5
20260505023445 11 34 6.4 16.1 0.00 0.00 0.00 1 1012.8
20260505022434 11 9 8.0 16.1 0.00 0.00 0.00 1 1012.8
20260505021422 11 60 8.0 16.1 0.00 0.00 0.00 1 1012.8
20260505020431 11 50 6.4 16.1 0.00 0.00 0.00 1 1012.8
20260505015429 11 31 6.4 14.5 0.00 0.00 0.00 1 1012.8
20260505014356 11 38 8.0 17.7 0.00 0.00 0.00 1 1012.7
20260505013358 11 17 8.0 17.7 0.00 0.00 0.00 1 1012.8
20260505010126 11 60 4.8 17.7 0.00 0.00 0.00 1 1013.2
20260505004040 11 28 6.4 16.1 0.00 0.00 0.00 1 1013.3
20260505003018 11 44 8.0 20.9 0.00 0.00 0.00 1 1013.3
20260505002025 11 58 8.0 20.9 0.00 0.00 0.00 1 1013.3
20260505001006 11 50 6.4 17.7 0.00 0.00 0.00 1 1013.2
20260504235936 11 70 6.4 19.3 0.00 0.00 0.00 1 1013.5
20260504234943 11 59 8.0 19.3 0.00 0.00 0.00 1 1013.6
20260504233954 11 78 6.4 17.7 0.00 0.00 0.00 1 1013.6
20260504232951 11 82 6.4 17.7 0.00 0.00 0.00 1 1013.6
20260504230737 11 72 8.0 19.3 0.00 0.00 0.00 1 1013.7
20260504225716 11 94 6.4 19.3 0.00 0.00 0.00 1 1013.6
20260504223613 11 99 8.0 17.7 0.00 0.00 0.00 1 1013.6
20260504222614 11 57 6.4 19.3 0.00 0.00 0.00 1 1013.7
20260504221623 11 78 8.0 19.3 0.00 0.00 0.00 1 1013.7
20260504220618 11 88 9.7 19.3 0.00 0.00 0.00 1 1013.7
20260504214451 12 76 6.4 19.3 0.00 0.00 0.00 1 1013.9
20260504213446 11 83 4.8 17.7 0.00 0.00 0.00 1 1013.9
20260504212413 11 84 6.4 14.5 0.00 0.00 0.00 1 1013.9
20260504210305 11 74 6.4 20.9 0.00 0.00 0.00 1 1013.8
20260504205234 11 96 6.4 20.9 0.00 0.00 0.00 1 1013.8
20260504204245 12 97 6.4 14.5 0.00 0.00 0.00 1 1013.9
20260504203233 12 59 4.8 12.9 0.00 0.00 0.00 1 1013.9
20260504202248 12 62 4.8 17.7 0.00 0.00 0.00 1 1013.9
20260504201236 12 82 4.8 17.7 0.00 0.00 0.00 1 1013.9
20260504200248 12 76 4.8 14.5 0.00 0.00 0.00 1 1013.7
20260504195305 12 87 3.2 14.5 0.00 0.00 0.00 1 1013.6
20260504194323 12 84 6.4 16.1 0.00 0.00 0.00 1 1013.5
20260504193325 12 55 4.8 16.1 0.00 0.00 0.00 1 1013.5
20260504192304 12 79 4.8 16.1 0.00 0.00 0.00 1 1013.5
20260504191259 12 91 4.8 16.1 0.00 0.00 0.00 1 1013.4
20260504190235 12 69 4.8 12.9 0.00 0.00 0.00 1 1013.3
20260504185245 12 54 4.8 12.9 0.00 0.00 0.00 1 1013.3
20260504184243 12 80 4.8 12.9 0.00 0.00 0.00 1 1013.2
20260504183259 13 55 3.2 9.7 0.00 0.00 0.00 1 1013.3
20260504182240 13 92 3.2 9.7 0.00 0.00 0.00 1 1013.2
20260504181229 13 85 3.2 14.5 0.00 0.00 0.00 1 1013.2
20260504180226 13 63 4.8 14.5 0.00 0.00 0.00 1 1013.3
20260504175211 13 35 4.8 16.1 0.00 0.00 0.00 1 1013.2
20260504174200 13 38 6.4 16.1 0.00 0.00 0.00 1 1013.2
20260504173218 13 41 4.8 14.5 0.00 0.00 0.00 1 1013.2
20260504172218 13 31 6.4 14.5 0.00 0.00 0.00 1 1013.2
20260504150623 16 44 6.4 14.5 0.00 0.00 0.00 1 1013.1
20260504130214 15 49 4.8 16.1 0.00 0.00 0.00 1 1013.4